EZY461R EGGW-EGPE

Flight info

Callsign EZY461R
Flight time 1h 2m
Altitude 36000
Route OLNEY T420 TNT UN57 POL UN601 RIBEL DCT ABEVI DCT INPIP DCT TLA DCT FOYLE N560 NESDI DCT GUSSI
Aircraft A320/M-SDE2E3FGHIJ1RWXYZ/LB1

Departure

Time 2026-05-09 12:24
Airport London Luton Airport (EGGW)

Arrival

Time 2026-05-09 13:26
Airport Inverness Airport (EGPE)
Time Latitude Longitude Altitude Speed Heading
2026-05-09 11:48 51.87888 -0.37925 524 ft 0 kts 72°
2026-05-09 12:16 51.87888 -0.37926 523 ft 1 kts 72°
2026-05-09 12:16 51.87881 -0.37963 523 ft 3 kts 73°
2026-05-09 12:16 51.87876 -0.37994 523 ft 4 kts 111°
2026-05-09 12:17 51.87892 -0.38015 523 ft 3 kts 174°
2026-05-09 12:17 51.87907 -0.38017 523 ft 0 kts 174°
2026-05-09 12:20 51.87891 -0.38014 523 ft 5 kts 171°
2026-05-09 12:20 51.87835 -0.37979 523 ft 12 kts 146°
2026-05-09 12:20 51.87779 -0.37845 523 ft 16 kts 115°
2026-05-09 12:20 51.87730 -0.37675 522 ft 18 kts 115°
2026-05-09 12:21 51.87671 -0.37502 522 ft 16 kts 138°
2026-05-09 12:21 51.87569 -0.37458 522 ft 15 kts 185°
2026-05-09 12:21 51.87502 -0.37548 522 ft 12 kts 251°
2026-05-09 12:21 51.87481 -0.37673 522 ft 11 kts 255°
2026-05-09 12:22 51.87460 -0.37797 522 ft 12 kts 255°
2026-05-09 12:22 51.87438 -0.37922 523 ft 10 kts 253°
2026-05-09 12:22 51.87421 -0.38001 523 ft 7 kts 243°
2026-05-09 12:22 51.87394 -0.38047 523 ft 5 kts 213°
2026-05-09 12:23 51.87364 -0.38070 523 ft 7 kts 204°
2026-05-09 12:23 51.87299 -0.38114 523 ft 11 kts 195°
2026-05-09 12:23 51.87247 -0.38090 523 ft 6 kts 100°
2026-05-09 12:23 51.87267 -0.37977 523 ft 28 kts 74°
2026-05-09 12:24 51.87394 -0.37239 521 ft 104 kts 74°
2026-05-09 12:24 51.87645 -0.35793 527 ft 160 kts 75°
2026-05-09 12:24 51.87945 -0.34064 1356 ft 156 kts 75°
2026-05-09 12:24 51.88240 -0.32392 2286 ft 155 kts 74°
2026-05-09 12:25 51.88555 -0.30619 2709 ft 175 kts 75°
2026-05-09 12:25 51.88918 -0.28599 3039 ft 199 kts 72°
2026-05-09 12:25 51.89729 -0.26663 3347 ft 226 kts 35°
2026-05-09 12:25 51.91306 -0.25957 3767 ft 255 kts 356°
2026-05-09 12:26 51.92475 -0.26519 4244 ft 266 kts 331°
2026-05-09 12:26 51.93763 -0.28703 5086 ft 275 kts 296°
2026-05-09 12:26 51.94131 -0.31756 5761 ft 282 kts 267°
2026-05-09 12:26 51.94027 -0.34915 6018 ft 282 kts 275°
2026-05-09 12:27 51.94716 -0.37863 6852 ft 282 kts 301°
2026-05-09 12:27 51.95732 -0.40583 7786 ft 283 kts 301°
2026-05-09 12:27 51.96744 -0.43334 8673 ft 285 kts 300°
2026-05-09 12:27 51.97737 -0.46132 9549 ft 287 kts 299°
2026-05-09 12:28 51.98717 -0.48985 10367 ft 291 kts 298°
2026-05-09 12:28 51.99892 -0.51807 10675 ft 315 kts 309°
2026-05-09 12:28 52.01452 -0.54455 11119 ft 329 kts 314°
2026-05-09 12:28 52.03056 -0.57100 11855 ft 333 kts 313°
2026-05-09 12:29 52.04681 -0.59805 12644 ft 336 kts 313°
2026-05-09 12:29 52.06316 -0.62546 13424 ft 339 kts 313°
2026-05-09 12:29 52.07957 -0.65312 14158 ft 341 kts 313°
2026-05-09 12:29 52.09615 -0.68108 14796 ft 345 kts 313°
2026-05-09 12:30 52.11296 -0.70937 15427 ft 348 kts 313°
2026-05-09 12:30 52.13096 -0.73630 16048 ft 353 kts 322°
2026-05-09 12:30 52.17310 -0.77887 17285 ft 362 kts 327°
2026-05-09 12:31 52.19477 -0.80020 17908 ft 366 kts 327°
2026-05-09 12:31 52.23886 -0.84380 19018 ft 374 kts 327°
2026-05-09 12:31 52.26118 -0.86593 19536 ft 377 kts 327°
2026-05-09 12:32 52.28373 -0.88838 20046 ft 381 kts 327°
2026-05-09 12:32 52.30650 -0.91109 20560 ft 385 kts 327°
2026-05-09 12:32 52.32949 -0.93402 21074 ft 389 kts 327°
2026-05-09 12:32 52.35266 -0.95708 21569 ft 392 kts 327°
2026-05-09 12:33 52.37609 -0.98042 22053 ft 395 kts 327°
2026-05-09 12:33 52.39971 -1.00399 22535 ft 399 kts 327°
2026-05-09 12:33 52.42349 -1.02776 23031 ft 402 kts 327°
2026-05-09 12:33 52.44754 -1.05183 23489 ft 405 kts 327°
2026-05-09 12:34 52.47171 -1.07606 23905 ft 408 kts 327°
2026-05-09 12:34 52.49604 -1.10047 24290 ft 411 kts 326°
2026-05-09 12:34 52.52057 -1.12517 24650 ft 415 kts 326°
2026-05-09 12:34 52.54520 -1.15002 25020 ft 418 kts 326°
2026-05-09 12:35 52.57028 -1.17528 25382 ft 421 kts 326°
2026-05-09 12:35 52.59539 -1.20059 25727 ft 424 kts 326°
2026-05-09 12:35 52.62042 -1.22587 26083 ft 427 kts 326°
2026-05-09 12:35 52.64592 -1.25165 26417 ft 431 kts 326°
2026-05-09 12:36 52.67154 -1.27763 26771 ft 434 kts 326°
2026-05-09 12:36 52.69747 -1.30400 27120 ft 437 kts 326°
2026-05-09 12:36 52.72339 -1.33038 27458 ft 440 kts 326°
2026-05-09 12:36 52.74961 -1.35711 27868 ft 444 kts 325°
2026-05-09 12:37 52.77569 -1.38372 28187 ft 447 kts 325°
2026-05-09 12:37 52.80260 -1.41120 28515 ft 450 kts 325°
2026-05-09 12:37 52.82902 -1.43821 28828 ft 453 kts 325°
2026-05-09 12:37 52.85593 -1.46574 29131 ft 456 kts 325°
2026-05-09 12:38 52.88341 -1.49389 29446 ft 459 kts 325°
2026-05-09 12:38 52.91063 -1.52184 29744 ft 462 kts 325°
2026-05-09 12:38 52.93807 -1.55014 30041 ft 466 kts 325°
2026-05-09 12:38 52.96562 -1.57854 30303 ft 469 kts 324°
2026-05-09 12:39 52.99346 -1.60729 30547 ft 472 kts 324°
2026-05-09 12:39 53.02110 -1.63590 30789 ft 474 kts 324°
2026-05-09 12:39 53.04995 -1.66446 31013 ft 479 kts 329°
2026-05-09 12:39 53.08058 -1.68683 31246 ft 484 kts 337°
2026-05-09 12:40 53.11227 -1.70631 31478 ft 487 kts 337°
2026-05-09 12:40 53.14366 -1.72556 31796 ft 487 kts 337°
2026-05-09 12:40 53.17548 -1.74511 32122 ft 487 kts 337°
2026-05-09 12:40 53.20730 -1.76479 32424 ft 487 kts 336°
2026-05-09 12:41 53.23914 -1.78461 32731 ft 488 kts 336°
2026-05-09 12:41 53.27103 -1.80455 33040 ft 489 kts 336°
2026-05-09 12:41 53.30289 -1.82452 33361 ft 489 kts 336°
2026-05-09 12:41 53.33496 -1.84461 33665 ft 490 kts 336°
2026-05-09 12:42 53.36694 -1.86462 33972 ft 490 kts 336°
2026-05-09 12:42 53.39895 -1.88465 34274 ft 491 kts 336°
2026-05-09 12:42 53.43084 -1.90462 34570 ft 490 kts 336°
2026-05-09 12:42 53.46284 -1.92474 34896 ft 488 kts 336°
2026-05-09 12:43 53.49453 -1.94474 35244 ft 485 kts 336°
2026-05-09 12:43 53.52605 -1.96469 35615 ft 483 kts 336°
2026-05-09 12:43 53.55738 -1.98451 35999 ft 481 kts 336°
2026-05-09 12:43 53.58870 -2.00435 36151 ft 478 kts 336°
2026-05-09 12:44 53.61962 -2.02399 36177 ft 473 kts 336°
2026-05-09 12:44 53.68107 -2.06313 36187 ft 470 kts 335°
2026-05-09 12:45 53.74190 -2.10191 36188 ft 469 kts 335°
2026-05-09 12:45 53.80273 -2.14228 36190 ft 468 kts 334°
2026-05-09 12:46 53.86306 -2.18419 36194 ft 468 kts 334°
2026-05-09 12:46 53.92338 -2.22599 36203 ft 468 kts 334°
2026-05-09 12:47 53.98384 -2.26758 36212 ft 467 kts 334°
2026-05-09 12:47 54.04365 -2.30862 36214 ft 466 kts 334°
2026-05-09 12:48 54.10392 -2.35015 36220 ft 466 kts 334°
2026-05-09 12:48 54.16397 -2.39180 36227 ft 465 kts 333°
2026-05-09 12:49 54.22398 -2.43357 36231 ft 465 kts 333°
2026-05-09 12:49 54.28405 -2.47546 36234 ft 465 kts 333°
2026-05-09 12:50 54.34389 -2.51748 36243 ft 464 kts 333°
2026-05-09 12:50 54.40339 -2.55933 36245 ft 464 kts 333°
2026-05-09 12:51 54.46326 -2.60144 36255 ft 463 kts 333°
2026-05-09 12:51 54.52301 -2.64356 36258 ft 463 kts 333°
2026-05-09 12:52 54.58230 -2.68543 36264 ft 462 kts 333°
2026-05-09 12:52 54.64174 -2.72766 36272 ft 461 kts 333°
2026-05-09 12:53 54.70104 -2.77006 36278 ft 460 kts 332°
2026-05-09 12:53 54.76028 -2.81244 36286 ft 459 kts 332°
2026-05-09 12:54 54.81934 -2.85476 36283 ft 458 kts 332°
2026-05-09 12:54 54.87830 -2.89720 36287 ft 457 kts 332°
2026-05-09 12:55 54.93671 -2.93938 36290 ft 456 kts 332°
2026-05-09 12:55 54.99547 -2.98205 36289 ft 455 kts 332°
2026-05-09 12:56 55.05390 -3.02459 36291 ft 454 kts 332°
2026-05-09 12:56 55.11196 -3.06685 36294 ft 453 kts 332°
2026-05-09 12:57 55.17021 -3.10951 36307 ft 452 kts 332°
2026-05-09 12:57 55.21850 -3.14498 36310 ft 452 kts 332°
2026-05-09 12:58 55.27644 -3.18767 36314 ft 451 kts 332°
2026-05-09 12:58 55.33441 -3.23040 36315 ft 451 kts 332°
2026-05-09 12:59 55.39222 -3.27310 36310 ft 450 kts 332°
2026-05-09 12:59 55.44996 -3.31610 36315 ft 449 kts 332°
2026-05-09 13:00 55.50500 -3.36513 36322 ft 440 kts 319°
2026-05-09 13:00 55.55121 -3.43450 36320 ft 433 kts 312°
2026-05-09 13:01 55.59629 -3.50535 36315 ft 433 kts 313°
2026-05-09 13:01 55.64115 -3.57584 36318 ft 433 kts 313°
2026-05-09 13:02 55.68618 -3.64679 36322 ft 432 kts 312°
2026-05-09 13:02 55.73100 -3.71795 36041 ft 431 kts 312°
2026-05-09 13:02 55.75334 -3.75348 35822 ft 429 kts 312°
2026-05-09 13:03 55.77558 -3.78885 35571 ft 427 kts 311°
2026-05-09 13:03 55.79761 -3.82394 35250 ft 423 kts 311°
2026-05-09 13:03 55.81956 -3.85893 34748 ft 421 kts 310°
2026-05-09 13:03 55.84105 -3.89326 34232 ft 420 kts 310°
2026-05-09 13:04 55.86299 -3.92836 33678 ft 417 kts 310°
2026-05-09 13:04 55.88426 -3.96243 33189 ft 413 kts 309°
2026-05-09 13:04 55.90550 -3.99657 32696 ft 409 kts 309°
2026-05-09 13:04 55.92655 -4.03055 32206 ft 406 kts 309°
2026-05-09 13:05 55.94739 -4.06424 31724 ft 403 kts 309°
2026-05-09 13:05 55.96820 -4.09793 31253 ft 400 kts 309°
2026-05-09 13:05 55.98870 -4.13110 30784 ft 397 kts 309°
2026-05-09 13:05 56.00910 -4.16415 30324 ft 393 kts 308°
2026-05-09 13:06 56.02903 -4.19647 29849 ft 389 kts 308°
2026-05-09 13:06 56.04888 -4.22866 29429 ft 382 kts 308°
2026-05-09 13:06 56.06842 -4.26039 28997 ft 376 kts 309°
2026-05-09 13:06 56.08767 -4.29171 28579 ft 371 kts 309°
2026-05-09 13:07 56.10665 -4.32259 28166 ft 367 kts 310°
2026-05-09 13:07 56.12794 -4.34922 27327 ft 387 kts 326°
2026-05-09 13:07 56.15462 -4.36328 26285 ft 417 kts 349°
2026-05-09 13:07 56.18382 -4.36317 25857 ft 417 kts 355°
2026-05-09 13:08 56.21270 -4.36189 25471 ft 410 kts 355°
2026-05-09 13:08 56.24096 -4.36081 24780 ft 402 kts 355°
2026-05-09 13:08 56.26894 -4.35998 23827 ft 400 kts 355°
2026-05-09 13:08 56.29647 -4.35925 23056 ft 390 kts 355°
2026-05-09 13:09 56.32335 -4.35847 22386 ft 379 kts 355°
2026-05-09 13:09 56.34949 -4.35779 22017 ft 372 kts 355°
2026-05-09 13:09 56.37506 -4.35712 21700 ft 366 kts 355°
2026-05-09 13:09 56.40050 -4.35641 21256 ft 363 kts 355°
2026-05-09 13:10 56.42571 -4.35564 20810 ft 361 kts 355°
2026-05-09 13:10 56.45079 -4.35492 20372 ft 359 kts 355°
2026-05-09 13:10 56.47545 -4.35427 19932 ft 357 kts 355°
2026-05-09 13:10 56.50027 -4.35361 19502 ft 356 kts 356°
2026-05-09 13:11 56.52506 -4.35288 19082 ft 355 kts 356°
2026-05-09 13:11 56.54977 -4.35207 18643 ft 353 kts 356°
2026-05-09 13:11 56.57412 -4.35125 18198 ft 350 kts 356°
2026-05-09 13:11 56.59851 -4.35049 17787 ft 347 kts 356°
2026-05-09 13:12 56.62263 -4.34978 17334 ft 344 kts 356°
2026-05-09 13:12 56.64644 -4.34910 16920 ft 342 kts 356°
2026-05-09 13:12 56.67016 -4.34839 16531 ft 339 kts 356°
2026-05-09 13:12 56.69369 -4.34773 16136 ft 337 kts 356°
2026-05-09 13:13 56.71702 -4.34709 15743 ft 335 kts 356°
2026-05-09 13:13 56.74029 -4.34647 15352 ft 333 kts 356°
2026-05-09 13:13 56.76338 -4.34583 14962 ft 331 kts 356°
2026-05-09 13:13 56.78612 -4.34514 14580 ft 329 kts 357°
2026-05-09 13:14 56.80933 -4.34440 14186 ft 328 kts 357°
2026-05-09 13:14 56.83181 -4.34366 13814 ft 326 kts 357°
2026-05-09 13:16 56.98668 -4.33885 11120 ft 312 kts 358°
2026-05-09 13:16 57.00823 -4.33820 10722 ft 310 kts 358°
2026-05-09 13:16 57.02956 -4.33752 10541 ft 301 kts 359°
2026-05-09 13:16 57.05019 -4.33683 10375 ft 290 kts 359°
2026-05-09 13:17 57.07014 -4.33616 9779 ft 284 kts 358°
2026-05-09 13:17 57.08981 -4.33553 9135 ft 280 kts 359°
2026-05-09 13:17 57.10921 -4.33493 8490 ft 277 kts 359°
2026-05-09 13:17 57.12833 -4.33436 7956 ft 269 kts 359°
2026-05-09 13:18 57.14671 -4.33381 7565 ft 262 kts 360°
2026-05-09 13:18 57.16490 -4.33331 7183 ft 260 kts 360°
2026-05-09 13:18 57.18297 -4.33282 6785 ft 259 kts
2026-05-09 13:18 57.20102 -4.33230 6396 ft 258 kts
2026-05-09 13:19 57.21871 -4.33175 6003 ft 257 kts
2026-05-09 13:19 57.23654 -4.33122 5616 ft 255 kts
2026-05-09 13:19 57.25426 -4.33072 5222 ft 254 kts
2026-05-09 13:19 57.27196 -4.33023 4817 ft 254 kts
2026-05-09 13:20 57.28756 -4.32975 4476 ft 252 kts
2026-05-09 13:20 57.30499 -4.32920 4209 ft 246 kts
2026-05-09 13:20 57.32164 -4.32865 4150 ft 232 kts 360°
2026-05-09 13:20 57.33736 -4.32812 4075 ft 220 kts 360°
2026-05-09 13:21 57.35228 -4.32761 3987 ft 212 kts 360°
2026-05-09 13:21 57.36702 -4.32713 3896 ft 211 kts
2026-05-09 13:21 57.38173 -4.32665 3803 ft 209 kts 360°
2026-05-09 13:21 57.39588 -4.32620 3720 ft 202 kts
2026-05-09 13:22 57.40958 -4.32203 3635 ft 200 kts 19°
2026-05-09 13:22 57.42130 -4.30875 3578 ft 195 kts 41°
2026-05-09 13:22 57.43027 -4.29023 3375 ft 190 kts 47°
2026-05-09 13:23 57.46347 -4.21857 2374 ft 179 kts 46°
2026-05-09 13:23 57.47160 -4.20103 2126 ft 177 kts 46°
2026-05-09 13:24 57.47960 -4.18377 1879 ft 173 kts 46°
2026-05-09 13:24 57.48725 -4.16722 1627 ft 166 kts 46°
2026-05-09 13:24 57.49470 -4.15111 1396 ft 162 kts 46°
2026-05-09 13:24 57.50184 -4.13567 1179 ft 154 kts 46°
2026-05-09 13:25 57.50864 -4.12095 975 ft 145 kts 48°
2026-05-09 13:25 57.51506 -4.10705 759 ft 138 kts 47°
2026-05-09 13:25 57.52744 -4.08022 394 ft 135 kts 49°
2026-05-09 13:26 57.53355 -4.06690 216 ft 135 kts 51°
2026-05-09 13:26 57.53965 -4.05373 44 ft 130 kts 51°
2026-05-09 13:26 57.54468 -4.04277 32 ft 88 kts 49°
2026-05-09 13:26 57.54669 -4.03841 30 ft 22 kts 53°
2026-05-09 13:27 57.54723 -4.03744 30 ft 4 kts 103°
2026-05-09 13:27 57.54699 -4.03747 29 ft 7 kts 223°
2026-05-09 13:27 57.54653 -4.03878 30 ft 17 kts 230°
2026-05-09 13:27 57.54552 -4.04101 30 ft 27 kts 229°
2026-05-09 13:28 57.54403 -4.04422 34 ft 37 kts 229°
2026-05-09 13:28 57.54267 -4.04726 36 ft 19 kts 233°
2026-05-09 13:28 57.54262 -4.04920 36 ft 15 kts 289°
2026-05-09 13:28 57.54292 -4.05081 36 ft 12 kts 289°
2026-05-09 13:29 57.54323 -4.05241 35 ft 17 kts 289°
2026-05-09 13:29 57.54371 -4.05493 35 ft 23 kts 290°
2026-05-09 13:29 57.54426 -4.05783 33 ft 22 kts 290°
2026-05-09 13:29 57.54463 -4.05979 35 ft 11 kts 287°
2026-05-09 13:30 57.54436 -4.06099 36 ft 13 kts 227°
2026-05-09 13:30 57.54367 -4.06235 36 ft 14 kts 214°
2026-05-09 13:30 57.54305 -4.06257 36 ft 13 kts 186°
2026-05-09 13:30 57.54218 -4.06238 36 ft 13 kts 155°
2026-05-09 13:31 57.54136 -4.06163 36 ft 14 kts 154°
2026-05-09 13:31 57.54043 -4.06146 36 ft 13 kts 185°
2026-05-09 13:31 57.53987 -4.06155 36 ft 4 kts 185°
2026-05-09 13:31 57.53979 -4.06156 35 ft 0 kts 185°
2026-05-09 13:32 57.53976 -4.06158 35 ft 2 kts 196°
2026-05-09 13:32 57.53969 -4.06197 36 ft 5 kts 268°
2026-05-09 13:33 57.53972 -4.06256 36 ft 3 kts 276°
2026-05-09 13:33 57.53972 -4.06261 36 ft 0 kts 275°